When you browse on this site, cookies collect data to enhance your experience and personalize the content and advertising you see.
Visit our Privacy Policy to learn more. By continuing to use the site, you agree to this use of cookies and data.

Hourly Weather Konstantyna

Today, 23 September, Wednesday

Time Temperature Precipitation Wind Pressure Humidity
00:00 +21°C° 0 mm 0 mps 710 mmHg 81%
01:00 +21°C° 0 mm 0 mps 709 mmHg 81%
02:00 +21°C° 0 mm 0 mps 709 mmHg 81%
03:00 +23°C° 0 mm 1 mps 709 mmHg 80%
04:00 +23°C° 0 mm 1 mps 709 mmHg 78%
05:00 +23°C° 0 mm 1 mps 709 mmHg 75%
06:00 +24°C° 0 mm 1 mps 710 mmHg 71%
07:00 +25°C° 0 mm 1 mps 710 mmHg 64%
08:00 +27°C° 0 mm 2 mps 710 mmHg 57%
09:00 +28°C° 0 mm 2 mps 711 mmHg 49%
10:00 +29°C° 0 mm 3 mps 711 mmHg 42%
11:00 +32°C° 0 mm 4 mps 711 mmHg 35%
12:00 +33°C° 0 mm 4 mps 712 mmHg 28%
13:00 +32°C° 0 mm 5 mps 711 mmHg 29%
14:00 +32°C° 0 mm 5 mps 711 mmHg 30%
15:00 +32°C° 0 mm 5 mps 711 mmHg 31%
16:00 +29°C° 0 mm 4 mps 711 mmHg 38%
17:00 +28°C° 0 mm 3 mps 711 mmHg 44%
18:00 +26°C° 0 mm 2 mps 711 mmHg 50%
19:00 +25°C° 0 mm 2 mps 711 mmHg 54%
20:00 +25°C° 0 mm 1 mps 711 mmHg 58%
21:00 +22°C° 0 mm 0 mps 711 mmHg 61%
22:00 +22°C° 0 mm 0 mps 711 mmHg 62%
23:00 +22°C° 0 mm 0 mps 711 mmHg 62%

Tomorrow, 24 September, Thursday

Time Temperature Precipitation Wind Pressure Humidity
00:00 +22°C° 0 mm 0 mps 711 mmHg 62%
01:00 +21°C° 0 mm 0 mps 710 mmHg 61%
02:00 +23°C° 0 mm 1 mps 710 mmHg 60%
03:00 +23°C° 0 mm 1 mps 710 mmHg 58%
04:00 +23°C° 0 mm 1 mps 710 mmHg 56%
05:00 +24°C° 0 mm 1 mps 710 mmHg 54%
06:00 +24°C° 0 mm 1 mps 710 mmHg 51%
07:00 +26°C° 0 mm 1 mps 711 mmHg 44%
08:00 +28°C° 0 mm 2 mps 711 mmHg 37%
09:00 +30°C° 0 mm 2 mps 712 mmHg 29%
10:00 +33°C° 0 mm 3 mps 712 mmHg 27%
11:00 +34°C° 0 mm 4 mps 712 mmHg 25%
12:00 +36°C° 0 mm 5 mps 712 mmHg 23%
13:00 +35°C° 0 mm 6 mps 712 mmHg 24%
14:00 +35°C° 0 mm 6 mps 712 mmHg 26%
15:00 +35°C° 0 mm 6 mps 711 mmHg 27%
16:00 +33°C° 0 mm 4 mps 711 mmHg 32%
17:00 +30°C° 0 mm 3 mps 711 mmHg 37%
18:00 +28°C° 0 mm 2 mps 711 mmHg 42%
19:00 +27°C° 0 mm 1 mps 711 mmHg 45%
20:00 +27°C° 0 mm 1 mps 711 mmHg 47%
21:00 +24°C° 0 mm 0 mps 712 mmHg 49%
22:00 +23°C° 0 mm 0 mps 711 mmHg 50%
23:00 +25°C° 0 mm 1 mps 711 mmHg 51%

Day after tomorrow, 25 September, Friday

Time Temperature Precipitation Wind Pressure Humidity
00:00 +25°C° 0 mm 1 mps 710 mmHg 52%
01:00 +24°C° 0 mm 1 mps 710 mmHg 52%
02:00 +24°C° 0 mm 1 mps 710 mmHg 53%
03:00 +24°C° 0 mm 1 mps 710 mmHg 54%
04:00 +24°C° 0 mm 1 mps 710 mmHg 53%
05:00 +24°C° 0 mm 1 mps 710 mmHg 52%
06:00 +24°C° 0 mm 1 mps 709 mmHg 52%
07:00 +26°C° 0 mm 2 mps 710 mmHg 46%
08:00 +27°C° 0 mm 3 mps 710 mmHg 41%
09:00 +29°C° 0 mm 4 mps 710 mmHg 35%
10:00 +30°C° 0 mm 5 mps 710 mmHg 35%
11:00 +30°C° 0 mm 6 mps 710 mmHg 34%
12:00 +32°C° 0 mm 8 mps 710 mmHg 33%
13:00 +31°C° 0 mm 8 mps 710 mmHg 38%
14:00 +28°C° 0 mm 8 mps 710 mmHg 44%
15:00 +27°C° 0 mm 9 mps 709 mmHg 49%
16:00 +24°C° 0.1 mm 8 mps 709 mmHg 56%
17:00 +22°C° 0.1 mm 8 mps 709 mmHg 62%
18:00 +20°C° 0.1 mm 8 mps 709 mmHg 68%
19:00 +18°C° 0.1 mm 8 mps 710 mmHg 67%
20:00 +17°C° 0.1 mm 8 mps 710 mmHg 65%
21:00 +17°C° 0.1 mm 9 mps 711 mmHg 63%
22:00 +16°C° 0 mm 9 mps 711 mmHg 64%
23:00 +16°C° 0 mm 9 mps 710 mmHg 64%

26 September, Saturday

Time Temperature Precipitation Wind Pressure Humidity
00:00 +15°C° 0 mm 9 mps 710 mmHg 65%
01:00 +15°C° 0.1 mm 9 mps 710 mmHg 66%
02:00 +13°C° 0.1 mm 9 mps 709 mmHg 67%
03:00 +13°C° 0.1 mm 9 mps 709 mmHg 68%
04:00 +13°C° 0.1 mm 8 mps 709 mmHg 70%
05:00 +14°C° 0.1 mm 7 mps 709 mmHg 73%
06:00 +13°C° 0.1 mm 6 mps 710 mmHg 75%
07:00 +14°C° 0.1 mm 6 mps 710 mmHg 74%
08:00 +14°C° 0.1 mm 5 mps 710 mmHg 72%
09:00 +15°C° 0.1 mm 5 mps 711 mmHg 71%
10:00 +15°C° 0.2 mm 5 mps 711 mmHg 70%
11:00 +15°C° 0.2 mm 5 mps 711 mmHg 68%
12:00 +16°C° 0.2 mm 5 mps 711 mmHg 67%
13:00 +16°C° 0.1 mm 5 mps 711 mmHg 67%
14:00 +17°C° 0.1 mm 4 mps 711 mmHg 68%
15:00 +17°C° 0.1 mm 4 mps 710 mmHg 68%
16:00 +16°C° 0.1 mm 3 mps 710 mmHg 70%
17:00 +16°C° 0.1 mm 2 mps 710 mmHg 73%
18:00 +15°C° 0.1 mm 1 mps 710 mmHg 75%
19:00 +15°C° 0 mm 1 mps 710 mmHg 76%
20:00 +15°C° 0 mm 1 mps 711 mmHg 77%
21:00 +14°C° 0 mm 1 mps 711 mmHg 78%
22:00 +14°C° 0 mm 1 mps 711 mmHg 78%
23:00 +14°C° 0 mm 1 mps 711 mmHg 78%

27 September, Sunday

Time Temperature Precipitation Wind Pressure Humidity
00:00 +13°C° 0 mm 0 mps 710 mmHg 78%
01:00 +13°C° 0 mm 0 mps 710 mmHg 79%
02:00 +13°C° 0 mm 0 mps 710 mmHg 81%
03:00 +13°C° 0 mm 1 mps 710 mmHg 82%
04:00 +13°C° 0 mm 1 mps 710 mmHg 81%
05:00 +14°C° 0 mm 1 mps 710 mmHg 81%
06:00 +14°C° 0 mm 1 mps 710 mmHg 81%
07:00 +15°C° 0 mm 1 mps 710 mmHg 72%
08:00 +17°C° 0 mm 2 mps 710 mmHg 64%
09:00 +18°C° 0 mm 2 mps 711 mmHg 56%
10:00 +20°C° 0 mm 3 mps 711 mmHg 50%
11:00 +21°C° 0 mm 4 mps 711 mmHg 44%
12:00 +22°C° 0 mm 4 mps 711 mmHg 39%
13:00 +23°C° 0 mm 4 mps 710 mmHg 38%
14:00 +23°C° 0 mm 5 mps 710 mmHg 37%
15:00 +23°C° 0 mm 5 mps 710 mmHg 37%
16:00 +22°C° 0 mm 4 mps 709 mmHg 43%
17:00 +20°C° 0 mm 3 mps 709 mmHg 50%
18:00 +19°C° 0 mm 3 mps 709 mmHg 57%
19:00 +18°C° 0 mm 2 mps 709 mmHg 61%
20:00 +18°C° 0 mm 2 mps 709 mmHg 66%
21:00 +18°C° 0 mm 1 mps 710 mmHg 71%
22:00 +18°C° 0 mm 1 mps 710 mmHg 73%
23:00 +15°C° 0 mm 0 mps 709 mmHg 74%

28 September, Monday

Time Temperature Precipitation Wind Pressure Humidity
00:00 +15°C° 0 mm 0 mps 709 mmHg 75%
01:00 +15°C° 0 mm 0 mps 709 mmHg 75%
02:00 +16°C° 0 mm 1 mps 709 mmHg 76%
03:00 +15°C° 0 mm 1 mps 709 mmHg 76%
04:00 +15°C° 0 mm 1 mps 709 mmHg 74%
05:00 +16°C° 0 mm 1 mps 709 mmHg 73%
06:00 +16°C° 0 mm 1 mps 709 mmHg 71%
07:00 +19°C° 0 mm 1 mps 710 mmHg 64%
08:00 +20°C° 0 mm 1 mps 710 mmHg 56%
09:00 +21°C° 0 mm 2 mps 711 mmHg 49%
10:00 +23°C° 0 mm 2 mps 711 mmHg 46%
11:00 +24°C° 0 mm 2 mps 711 mmHg 44%
12:00 +25°C° 0 mm 2 mps 711 mmHg 41%
13:00 +25°C° 0 mm 2 mps 711 mmHg 41%
14:00 +25°C° 0 mm 3 mps 710 mmHg 41%
15:00 +25°C° 0 mm 3 mps 710 mmHg 41%
16:00 +24°C° 0 mm 3 mps 710 mmHg 47%
17:00 +23°C° 0 mm 2 mps 710 mmHg 52%
18:00 +21°C° 0 mm 2 mps 710 mmHg 58%
19:00 +20°C° 0 mm 2 mps 711 mmHg 62%
20:00 +21°C° 0 mm 1 mps 711 mmHg 67%
21:00 +20°C° 0 mm 1 mps 711 mmHg 72%
22:00 +20°C° 0 mm 1 mps 711 mmHg 72%
23:00 +20°C° 0 mm 1 mps 711 mmHg 73%
Show more